Regional Weather Roundup
Issued by NWS Kansas City/Pleasant Hill, MO

Home | Current Version | Previous Version | Graphics & Text | Print | Product List | Glossary Off
Versions: 1 2 3 4 5 6 7 8 9 10 11 12 13 14 15 16 17 18 19 20 21 22 23 24 25 26 27 28 29 30 31 32 33 34 35 36 37 38 39 40 41 42 43 44 45 46 47 48 49 50

000
ASUS43 KEAX 030210
RWREAX

WEATHER ROUNDUP FOR EASTERN KANSAS AND NORTHWEST MISSOURI
NATIONAL WEATHER SERVICE KANSAS CITY/PLEASANT HILL MO
900 PM CDT MON MAY 02 2016

KSZ040-057-103>105-MOZ028-029-037-043-030300-
...KANSAS CITY METROPOLITAN AREA...

CITY           SKY/WX    TMP DP  RH WIND       PRES   REMARKS
K.C. INTL      PTCLDY    49  45  86 S5        30.06S
K.C. DOWNTOWN  CLEAR     54  46  74 SW3       30.06S
LEES SUMMIT    CLEAR     51  46  83 W5        30.07S
OLATHE - IXD   CLEAR     50  45  83 W3        30.08S
OLATHE - OJC   CLEAR     49  44  83 CALM      30.07S
LAWRENCE       CLEAR     48  46  93 CALM      30.07S

$$

MOZ001>008-011>017-020>025-030>033-038>040-044>046-053-054-030300-
...NORTHERN AND CENTRAL MISSOURI...

CITY           SKY/WX    TMP DP  RH WIND       PRES   REMARKS
ST. JOSEPH     CLEAR     53  47  79 SW5       30.06R
MOSBY          MOCLDY    50  46  87 CALM      30.06S
WARRENSBURG    CLOUDY    52  46  82 CALM      30.07R
WHITEMAN AFB   NOT AVBL
CLINTON        CLOUDY    50  48  93 CALM      30.07S
SEDALIA        CLOUDY    51  49  92 CALM      30.06F
WARSAW         NOT AVBL
CHILLICOTHE      N/A     50  48  93 CALM      30.06S
KIRKSVILLE     PTCLDY    47  45  93 NW3       30.06S

$$

MOZ041-047>049-056>058-063>065-088>090-097-030300-
...EASTERN AND SOUTHERN MISSOURI...

CITY           SKY/WX    TMP DP  RH WIND       PRES   REMARKS
ST. LOUIS INTL CLOUDY    54  49  83 NW5       30.02S
SPIRIT OF STL  CLOUDY    53  50  89 W5        30.02S
COLUMBIA       CLOUDY    51  49  92 NW6       30.04S
JEFFERSON CITY CLOUDY    53  48  83 NW6       30.04S
ROLLA          CLOUDY    49  47  93 NW3       30.03R
OSAGE BEACH    CLOUDY    52  41  66 CALM      30.06R
SPRINGFIELD    CLOUDY    52  45  77 N6        30.06R
BRANSON        CLOUDY    50  46  87 CALM      30.07R
JOPLIN         CLOUDY    52  48  86 CALM      30.08R
WEST PLAINS    CLOUDY    53  44  71 N7        30.05R

$$

IAZ060-094-KSZ022-034>040-054-083-096-NEZ052-066-093-030300-
...KANSAS...SOUTHEAST NEBRASKA AND IOWA...

CITY           SKY/WX    TMP DP  RH WIND       PRES   REMARKS
TOPEKA         CLEAR     52  45  77 CALM      30.07S
MANHATTAN      PTCLDY    51  44  77 CALM      30.06S
EMPORIA        CLEAR     51  44  77 SE5       30.08R
CHANUTE        MOCLDY    54  46  74 CALM      30.08S
WICHITA        PTCLDY    56  38  50 CALM      30.08R
OMAHA          PTCLDY    55  42  61 CALM      30.04S
LINCOLN        CLEAR     59  39  47 CALM      30.06S
FALLS CITY     PTCLDY    53  43  68 S3        30.05S
LAMONI         CLEAR     54  42  64 SE3       30.05S
DES MOINES     PTCLDY    55  42  61 SE5       30.05S

$$




USA.gov is the U.S. government's official web portal to all federal, state and local government web resources and services.